Weather History for KSEE - December, 2012

Change the Weather History Date:

Wednesday, December 26, 2012

  Actual Average Record
Temperature  
Mean Temperature 52 °F -  
Max Temperature 60 °F 70 °F - (-1)
Min Temperature 44 °F 38 °F - (-1)
Degree Days  
Heating Degree Days 13    
Growing Degree Days 2 (Base 50)    
Moisture  
Dew Point 47 °F    
Average Humidity 97    
Maximum Humidity 100    
Minimum Humidity 52    
Precipitation  
Precipitation 0.00 in - - ()
Sea Level Pressure  
Sea Level Pressure 30.01 in    
Wind  
Wind Speed 2 mph (SW)    
Max Wind Speed 14 mph    
Max Gust Speed 20 mph    
Visibility 9 miles    
Events Rain    
Averages and records for this station are not official NWS values.
T = Trace of Precipitation, MM = Missing Value Source: NWS Daily Summary

Daily Weather History Graph

Daily Weather History Graph

Search for Another Location

Airport or City:

Trip Planner

Search our weather history database for the weather conditions in past years. The results will help you decide how hot, cold, wet, or windy it might be!

Date:

Astronomy

Dec. 26, 2012 Rise Set
Actual Time 6:48 AM PST 4:48 PM PST
Civil Twilight 6:21 AM PST 5:16 PM PST
Nautical Twilight 5:50 AM PST 5:46 PM PST
Astronomical Twilight 5:20 AM PST 6:17 PM PST
Moon 3:44 PM PST (12/26) 5:17 AM PST (12/26)
Length of Visible Light 10h 54m
Length of Day
9h 59m
Waxing Gibbous, 98% of the Moon is Illuminated
Dec 26
Waxing Gibbous
Dec 28
Full
Jan 4
Last Quarter
Jan 11
New
Jan 18
First Quarter

Hourly Weather History & Observations

Time (PST) Temp. Windchill Dew Point Humidity Pressure Visibility Wind Dir Wind Speed Gust Speed Precip Events Conditions
12:15 AM 44.6 °F - 44.6 °F 100% 30.04 in 8.0 mi Calm Calm - N/A   Clear
12:35 AM 44.6 °F 43.1 °F 44.6 °F 100% 30.02 in 8.0 mi SSE 3.5 mph - N/A   Clear
1:15 AM 44.6 °F - 44.6 °F 100% 30.02 in 10.0 mi Calm Calm - N/A   Clear
1:35 AM 44.6 °F 43.1 °F 44.6 °F 100% 30.02 in 8.0 mi WNW 3.5 mph - N/A   Mostly Cloudy
1:55 AM 44.6 °F 43.1 °F 44.6 °F 100% 30.02 in 7.0 mi NW 3.5 mph - N/A   Overcast
2:15 AM 44.6 °F - 44.6 °F 100% 30.02 in 9.0 mi Calm Calm - N/A   Overcast
2:35 AM 44.6 °F - 44.6 °F 100% 30.02 in 10.0 mi Calm Calm - N/A   Overcast
2:55 AM 44.6 °F - 44.6 °F 100% 30.01 in 10.0 mi Calm Calm - N/A   Overcast
3:35 AM 46.4 °F - 46.4 °F 100% 30.00 in 10.0 mi Calm Calm - N/A   Overcast
4:15 AM 46.4 °F - 46.4 °F 100% 29.98 in 10.0 mi Calm Calm - N/A   Overcast
4:35 AM 44.6 °F 40.7 °F 44.6 °F 100% 29.99 in 10.0 mi West 6.9 mph - N/A   Scattered Clouds
4:55 AM 44.6 °F - 44.6 °F 100% 29.98 in 10.0 mi Calm Calm - N/A   Partly Cloudy
5:15 AM 44.6 °F - 44.6 °F 100% 29.99 in 10.0 mi Calm Calm - N/A   Clear
6:47 AM 46.4 °F - 46.4 °F 100% 29.99 in 4.0 mi Calm Calm - N/A Rain Light Rain
7:57 AM 46.4 °F - 46.4 °F 100% 29.99 in 4.0 mi Calm Calm - N/A Rain Light Rain
10:59 AM 55.4 °F - 55.4 °F 100% 30.01 in 7.0 mi Variable 6.9 mph - N/A   Mostly Cloudy
11:47 AM 55.4 °F - 48.2 °F 77% 29.99 in 8.0 mi West 13.8 mph - N/A   Mostly Cloudy
12:47 PM 60.8 °F - 42.8 °F 52% 29.97 in 10.0 mi WSW 12.7 mph 19.6 mph N/A   Scattered Clouds
8:15 PM 50.0 °F - 48.2 °F 94% 30.01 in 10.0 mi Calm Calm - N/A   Mostly Cloudy
8:35 PM 50.0 °F - 48.2 °F 94% 30.01 in 9.0 mi ESE 5.8 mph - N/A   Mostly Cloudy
8:47 PM 50.0 °F - 48.2 °F 94% 30.00 in 12.0 mi Calm Calm - N/A   Mostly Cloudy
8:55 PM 50.0 °F - 48.2 °F 94% 30.01 in 9.0 mi ESE 3.5 mph - N/A   Mostly Cloudy
9:15 PM 50.0 °F - 48.2 °F 94% 30.02 in 9.0 mi South 3.5 mph - N/A   Mostly Cloudy
9:35 PM 48.2 °F - 48.2 °F 100% 30.02 in 7.0 mi Calm Calm - N/A   Mostly Cloudy
9:55 PM 48.2 °F - 48.2 °F 100% 30.02 in 8.0 mi ESE 3.5 mph - N/A   Mostly Cloudy
10:15 PM 48.2 °F - 48.2 °F 100% 30.02 in 8.0 mi Calm Calm - N/A   Mostly Cloudy
10:35 PM 48.2 °F - 48.2 °F 100% 30.02 in 10.0 mi Calm Calm - N/A   Mostly Cloudy
10:55 PM 48.2 °F - 48.2 °F 100% 30.02 in 8.0 mi Calm Calm - N/A   Mostly Cloudy
11:15 PM 46.4 °F - 46.4 °F 100% 30.01 in 8.0 mi Calm Calm - N/A   Scattered Clouds
11:35 PM 46.4 °F - 46.4 °F 100% 30.01 in 8.0 mi Calm Calm - N/A   Mostly Cloudy
11:55 PM 46.4 °F - 46.4 °F 100% 30.01 in 8.0 mi Calm Calm - N/A   Mostly Cloudy